Time,TemperatureF,DewpointF,PressureIn,WindDirection,WindDirectionDegrees,WindSpeedMPH,WindSpeedGustMPH,Humidity,HourlyPrecipIn,Conditions,Clouds,dailyrainin,SolarRadiationWatts/m^2,SoftwareType,DateUTC
2013-07-28 00:02:00,75.0,49.0,-100.00,SSE,166,0.0,11.0,40,0.00,,,0.00,0.000000,,2013-07-28 07:02:00,
2013-07-28 00:12:00,75.0,49.0,-100.00,SSE,166,0.0,11.0,40,0.00,,,0.00,0.000000,,2013-07-28 07:12:00,
2013-07-28 00:22:00,75.0,49.0,-100.00,SSE,166,0.0,11.0,40,0.00,,,0.00,0.000000,,2013-07-28 07:22:00,
2013-07-28 00:32:00,72.0,46.0,-100.00,WSW,246,8.0,13.0,40,0.00,,,0.00,0.000000,,2013-07-28 07:32:00,
2013-07-28 01:02:00,72.0,46.0,-100.00,WSW,246,8.0,13.0,40,0.00,,,0.00,0.000000,,2013-07-28 08:02:00,
2013-07-28 01:12:00,72.0,46.0,-100.00,WSW,246,8.0,13.0,40,0.00,,,0.00,0.000000,,2013-07-28 08:12:00,
2013-07-28 01:32:00,74.0,49.0,-100.00,South,187,3.0,13.0,42,0.00,,,0.00,0.000000,,2013-07-28 08:32:00,
2013-07-28 01:53:00,74.0,49.0,-100.00,South,187,3.0,13.0,42,0.00,,,0.00,0.000000,,2013-07-28 08:53:00,
2013-07-28 02:02:00,74.0,49.0,-100.00,South,187,3.0,13.0,42,0.00,,,0.00,0.000000,,2013-07-28 09:02:00,
2013-07-28 02:12:00,74.0,49.0,-100.00,South,187,3.0,13.0,42,0.00,,,0.00,0.000000,,2013-07-28 09:12:00,
2013-07-28 02:22:00,74.0,49.0,-100.00,South,187,3.0,13.0,42,0.00,,,0.00,0.000000,,2013-07-28 09:22:00,
2013-07-28 02:32:00,71.0,49.0,-100.00,WSW,250,3.0,8.0,46,0.00,,,0.00,0.000000,,2013-07-28 09:32:00,
2013-07-28 02:53:00,71.0,49.0,-100.00,WSW,250,3.0,8.0,46,0.00,,,0.00,0.000000,,2013-07-28 09:53:00,
2013-07-28 03:02:00,71.0,49.0,-100.00,WSW,250,3.0,8.0,46,0.00,,,0.00,0.000000,,2013-07-28 10:02:00,
2013-07-28 03:12:00,71.0,49.0,-100.00,WSW,250,3.0,8.0,46,0.00,,,0.00,0.000000,,2013-07-28 10:12:00,
2013-07-28 03:22:00,71.0,49.0,-100.00,WSW,250,3.0,8.0,46,0.00,,,0.00,0.000000,,2013-07-28 10:22:00,
2013-07-28 03:32:00,70.0,48.0,-100.00,SW,229,4.0,12.0,46,0.00,,,0.00,0.000000,,2013-07-28 10:32:00,
2013-07-28 04:02:00,70.0,48.0,-100.00,SW,229,4.0,12.0,46,0.00,,,0.00,0.000000,,2013-07-28 11:02:00,
2013-07-28 04:12:00,70.0,48.0,-100.00,SW,229,4.0,12.0,46,0.00,,,0.00,0.000000,,2013-07-28 11:12:00,
2013-07-28 04:22:00,70.0,48.0,-100.00,SW,229,4.0,12.0,46,0.00,,,0.00,0.000000,,2013-07-28 11:22:00,
2013-07-28 04:32:00,69.0,48.0,-100.00,WSW,243,0.0,6.0,48,0.00,,,0.00,0.000000,,2013-07-28 11:32:00,
2013-07-28 04:54:00,69.0,48.0,-100.00,WSW,243,0.0,6.0,48,0.00,,,0.00,0.000000,,2013-07-28 11:54:00,
2013-07-28 05:02:00,69.0,48.0,-100.00,WSW,243,0.0,6.0,48,0.00,,,0.00,0.000000,,2013-07-28 12:02:00,
2013-07-28 05:12:00,69.0,48.0,-100.00,WSW,243,0.0,6.0,48,0.00,,,0.00,0.000000,,2013-07-28 12:12:00,
2013-07-28 05:22:00,69.0,48.0,-100.00,WSW,243,0.0,6.0,48,0.00,,,0.00,0.000000,,2013-07-28 12:22:00,
2013-07-28 05:32:00,69.0,48.0,-100.00,WSW,247,4.0,6.0,48,0.00,,,0.00,0.000000,,2013-07-28 12:32:00,
2013-07-28 05:53:00,69.0,48.0,-100.00,WSW,247,4.0,6.0,48,0.00,,,0.00,0.000000,,2013-07-28 12:53:00,
2013-07-28 06:02:00,69.0,48.0,-100.00,WSW,247,4.0,6.0,48,0.00,,,0.00,0.000000,,2013-07-28 13:02:00,
2013-07-28 06:12:00,69.0,48.0,-100.00,WSW,247,4.0,6.0,48,0.00,,,0.00,0.000000,,2013-07-28 13:12:00,
2013-07-28 06:22:00,69.0,48.0,-100.00,WSW,247,4.0,6.0,48,0.00,,,0.00,0.000000,,2013-07-28 13:22:00,
2013-07-28 06:32:00,70.0,49.0,-100.00,SW,221,1.0,7.0,47,0.00,,,0.00,11.000000,,2013-07-28 13:32:00,
2013-07-28 07:02:00,70.0,49.0,-100.00,SW,221,1.0,7.0,47,0.00,,,0.00,11.000000,,2013-07-28 14:02:00,
2013-07-28 07:12:00,70.0,49.0,-100.00,SW,221,1.0,7.0,47,0.00,,,0.00,11.000000,,2013-07-28 14:12:00,
2013-07-28 07:22:00,70.0,49.0,-100.00,SW,221,1.0,7.0,47,0.00,,,0.00,11.000000,,2013-07-28 14:22:00,
2013-07-28 07:32:00,77.0,51.0,-100.00,NNE,30,0.0,4.0,40,0.00,,,0.00,140.000000,,2013-07-28 14:32:00,
2013-07-28 08:02:00,77.0,51.0,-100.00,NNE,30,0.0,4.0,40,0.00,,,0.00,140.000000,,2013-07-28 15:02:00,
2013-07-28 08:12:00,77.0,51.0,-100.00,NNE,30,0.0,4.0,40,0.00,,,0.00,140.000000,,2013-07-28 15:12:00,
2013-07-28 08:22:00,77.0,51.0,-100.00,NNE,30,0.0,4.0,40,0.00,,,0.00,140.000000,,2013-07-28 15:22:00,
2013-07-28 08:32:00,77.0,50.0,-100.00,SE,140,7.0,10.0,39,0.00,,,-99.99,403.000000,,2013-07-28 15:32:00,
2013-07-28 09:02:00,77.0,50.0,-100.00,SE,140,7.0,10.0,39,0.00,,,-99.99,403.000000,,2013-07-28 16:02:00,
2013-07-28 09:12:00,77.0,50.0,-100.00,SE,140,7.0,10.0,39,0.00,,,-99.99,403.000000,,2013-07-28 16:12:00,
2013-07-28 09:22:00,77.0,50.0,-100.00,SE,140,7.0,10.0,39,0.00,,,-99.99,403.000000,,2013-07-28 16:22:00,
2013-07-28 09:32:00,76.0,50.0,-100.00,SE,135,1.0,9.0,40,0.00,,,-99.99,430.000000,,2013-07-28 16:32:00,
2013-07-28 10:02:00,76.0,50.0,-100.00,SE,135,1.0,9.0,40,0.00,,,-99.99,430.000000,,2013-07-28 17:02:00,
2013-07-28 10:12:00,76.0,50.0,-100.00,SE,135,1.0,9.0,40,0.00,,,-99.99,430.000000,,2013-07-28 17:12:00,
2013-07-28 10:22:00,76.0,50.0,-100.00,SE,135,1.0,9.0,40,0.00,,,-99.99,430.000000,,2013-07-28 17:22:00,
2013-07-28 10:32:00,81.0,52.0,-100.00,ESE,118,5.0,11.0,37,0.00,,,0.00,634.000000,,2013-07-28 17:32:00,
2013-07-28 11:02:00,81.0,52.0,-100.00,ESE,118,5.0,11.0,37,0.00,,,0.00,634.000000,,2013-07-28 18:02:00,
2013-07-28 11:12:00,81.0,52.0,-100.00,ESE,118,5.0,11.0,37,0.00,,,0.00,634.000000,,2013-07-28 18:12:00,
2013-07-28 11:22:00,81.0,52.0,-100.00,ESE,118,5.0,11.0,37,0.00,,,0.00,634.000000,,2013-07-28 18:22:00,
2013-07-28 11:32:00,85.0,52.0,-100.00,ESE,118,7.0,12.0,32,0.00,,,0.00,1052.000000,,2013-07-28 18:32:00,
2013-07-28 11:52:00,85.0,52.0,-100.00,ESE,118,7.0,12.0,32,0.00,,,0.00,1052.000000,,2013-07-28 18:52:00,
2013-07-28 12:02:00,85.0,52.0,-100.00,ESE,118,7.0,12.0,32,0.00,,,0.00,1052.000000,,2013-07-28 19:02:00,
2013-07-28 12:12:00,85.0,52.0,-100.00,ESE,118,7.0,12.0,32,0.00,,,0.00,1052.000000,,2013-07-28 19:12:00,
2013-07-28 12:22:00,85.0,52.0,-100.00,ESE,118,7.0,12.0,32,0.00,,,0.00,1052.000000,,2013-07-28 19:22:00,
2013-07-28 12:32:00,85.0,50.0,-100.00,SE,135,9.0,14.0,30,0.00,,,0.00,1026.000000,,2013-07-28 19:32:00,
2013-07-28 12:52:00,85.0,50.0,-100.00,SE,135,9.0,14.0,30,0.00,,,0.00,1026.000000,,2013-07-28 19:52:00,
2013-07-28 13:02:00,85.0,50.0,-100.00,SE,135,9.0,14.0,30,0.00,,,0.00,1026.000000,,2013-07-28 20:02:00,
2013-07-28 13:12:00,85.0,50.0,-100.00,SE,135,9.0,14.0,30,0.00,,,0.00,1026.000000,,2013-07-28 20:12:00,
2013-07-28 13:22:00,85.0,50.0,-100.00,SE,135,9.0,14.0,30,0.00,,,0.00,1026.000000,,2013-07-28 20:22:00,
2013-07-28 13:32:00,83.0,47.0,-100.00,SSE,156,16.0,29.0,28,0.00,,,0.00,785.000000,,2013-07-28 20:32:00,
2013-07-28 13:53:00,83.0,47.0,-100.00,SSE,156,16.0,29.0,28,0.00,,,0.00,785.000000,,2013-07-28 20:53:00,
2013-07-28 14:02:00,83.0,47.0,-100.00,SSE,156,16.0,29.0,28,0.00,,,0.00,785.000000,,2013-07-28 21:02:00,
2013-07-28 14:12:00,83.0,47.0,-100.00,SSE,156,16.0,29.0,28,0.00,,,0.00,785.000000,,2013-07-28 21:12:00,
2013-07-28 14:22:00,83.0,47.0,-100.00,SSE,156,16.0,29.0,28,0.00,,,0.00,785.000000,,2013-07-28 21:22:00,
2013-07-28 14:32:00,82.0,47.0,-100.00,NNW,328,8.0,29.0,30,0.00,,,0.00,394.000000,,2013-07-28 21:32:00,
2013-07-28 14:52:00,82.0,47.0,-100.00,NNW,328,8.0,29.0,30,0.00,,,0.00,394.000000,,2013-07-28 21:52:00,
2013-07-28 15:01:00,82.0,47.0,-100.00,NNW,328,8.0,29.0,30,0.00,,,0.00,394.000000,,2013-07-28 22:01:00,
2013-07-28 15:12:00,82.0,47.0,-100.00,NNW,328,8.0,29.0,30,0.00,,,0.00,394.000000,,2013-07-28 22:12:00,
2013-07-28 15:22:00,82.0,47.0,-100.00,NNW,328,8.0,29.0,30,0.00,,,0.00,394.000000,,2013-07-28 22:22:00,
2013-07-28 15:32:00,78.0,46.0,-100.00,NW,310,12.0,21.0,32,0.00,,,0.00,235.000000,,2013-07-28 22:32:00,
2013-07-28 16:03:00,78.0,46.0,-100.00,NW,310,12.0,21.0,32,0.00,,,0.00,235.000000,,2013-07-28 23:03:00,
2013-07-28 16:12:00,78.0,46.0,-100.00,NW,310,12.0,21.0,32,0.00,,,0.00,235.000000,,2013-07-28 23:12:00,
2013-07-28 16:22:00,78.0,46.0,-100.00,NW,310,12.0,21.0,32,0.00,,,0.00,235.000000,,2013-07-28 23:22:00,
2013-07-28 16:32:00,76.0,45.0,-100.00,NW,305,15.0,31.0,33,0.00,,,0.00,67.000000,,2013-07-28 23:32:00,
2013-07-28 16:53:00,76.0,45.0,-100.00,NW,305,15.0,31.0,33,0.00,,,0.00,67.000000,,2013-07-28 23:53:00,
2013-07-28 17:02:00,76.0,45.0,-100.00,NW,305,15.0,31.0,33,0.00,,,0.00,67.000000,,2013-07-29 00:02:00,
2013-07-28 17:12:00,76.0,45.0,-100.00,NW,305,15.0,31.0,33,0.00,,,0.00,67.000000,,2013-07-29 00:12:00,
2013-07-28 17:22:00,76.0,45.0,-100.00,NW,305,15.0,31.0,33,0.00,,,0.00,67.000000,,2013-07-29 00:22:00,
2013-07-28 17:32:00,80.0,45.0,-100.00,ENE,71,9.0,20.0,29,0.00,,,0.00,442.000000,,2013-07-29 00:32:00,
2013-07-28 18:02:00,80.0,45.0,-100.00,ENE,71,9.0,20.0,29,0.00,,,0.00,442.000000,,2013-07-29 01:02:00,
2013-07-28 18:12:00,80.0,45.0,-100.00,ENE,71,9.0,20.0,29,0.00,,,0.00,442.000000,,2013-07-29 01:12:00,
2013-07-28 18:24:00,80.0,45.0,-100.00,ENE,71,9.0,20.0,29,0.00,,,0.00,442.000000,,2013-07-29 01:24:00,
2013-07-28 19:00:00,77.0,45.0,-100.00,NNW,333,0.0,12.0,32,0.00,,,0.00,115.000000,,2013-07-29 02:00:00,
2013-07-28 19:24:00,77.0,45.0,-100.00,NNW,333,0.0,12.0,32,0.00,,,0.00,115.000000,,2013-07-29 02:24:00,
2013-07-28 19:32:00,76.0,41.0,-100.00,SSE,159,8.0,18.0,28,0.00,,,0.00,31.000000,,2013-07-29 02:32:00,
2013-07-28 20:03:00,76.0,41.0,-100.00,SSE,159,8.0,18.0,28,0.00,,,0.00,31.000000,,2013-07-29 03:03:00,
2013-07-28 20:14:00,76.0,41.0,-100.00,SSE,159,8.0,18.0,28,0.00,,,0.00,31.000000,,2013-07-29 03:14:00,
2013-07-28 20:22:00,76.0,41.0,-100.00,SSE,159,8.0,18.0,28,0.00,,,0.00,31.000000,,2013-07-29 03:22:00,
2013-07-28 20:32:00,76.0,42.0,-100.00,West,273,13.0,24.0,30,0.00,,,0.00,6.000000,,2013-07-29 03:32:00,
2013-07-28 21:02:00,76.0,42.0,-100.00,West,273,13.0,24.0,30,0.00,,,0.00,6.000000,,2013-07-29 04:02:00,
2013-07-28 21:12:00,76.0,42.0,-100.00,West,273,13.0,24.0,30,0.00,,,0.00,6.000000,,2013-07-29 04:12:00,
2013-07-28 21:22:00,76.0,42.0,-100.00,West,273,13.0,24.0,30,0.00,,,0.00,6.000000,,2013-07-29 04:22:00,
2013-07-28 21:32:00,75.0,43.0,-100.00,WNW,289,16.0,23.0,32,0.00,,,-99.99,0.000000,,2013-07-29 04:32:00,
2013-07-28 22:02:00,75.0,43.0,-100.00,WNW,289,16.0,23.0,32,0.00,,,-99.99,0.000000,,2013-07-29 05:02:00,
2013-07-28 22:12:00,75.0,43.0,-100.00,WNW,289,16.0,23.0,32,0.00,,,-99.99,0.000000,,2013-07-29 05:12:00,
2013-07-28 22:22:00,75.0,43.0,-100.00,WNW,289,16.0,23.0,32,0.00,,,-99.99,0.000000,,2013-07-29 05:22:00,
2013-07-28 22:32:00,76.0,42.0,-100.00,WNW,292,11.0,21.0,30,0.00,,,0.00,0.000000,,2013-07-29 05:32:00,
2013-07-28 22:53:00,76.0,42.0,-100.00,WNW,292,11.0,21.0,30,0.00,,,0.00,0.000000,,2013-07-29 05:53:00,
2013-07-28 23:02:00,76.0,42.0,-100.00,WNW,292,11.0,21.0,30,0.00,,,0.00,0.000000,,2013-07-29 06:02:00,
2013-07-28 23:12:00,76.0,42.0,-100.00,WNW,292,11.0,21.0,30,0.00,,,0.00,0.000000,,2013-07-29 06:12:00,
2013-07-28 23:22:00,76.0,42.0,-100.00,WNW,292,11.0,21.0,30,0.00,,,0.00,0.000000,,2013-07-29 06:22:00,
2013-07-28 23:32:00,72.0,41.0,-100.00,West,281,2.0,19.0,32,0.00,,,0.00,0.000000,,2013-07-29 06:32:00,